Location: Saluda
(35.2377°N, 82.3468°W)
Time: 06:37:56
(UTC+00:00)

Vanguard 2 - Pass Details

Date: 03 October 2022
Orbit: 553 x 2933 km, 32.9° (Epoch: 26 November)

Event Time Altitude Azimuth Distance (km) Brightness Sun altitude
Rises 14:46:08 0° 175° (S) 3,840 11.6 36.9°
Reaches altitude 10° 14:51:55 10° 138° (SE) 3,495 12.2 37.8°
Maximum altitude 14:53:36 11° 127° (SE) 3,623 12.3 38.0°
Drops below altitude 10° 14:55:26 10° 117° (ESE) 3,858 12.3 38.3°
Sets 15:03:47 0° 85° (E) 5,635 12.4 39.5°
